Location: Bonneuil
(46.1010°N, 2.9693°E)
Time: 15:54:59
(UTC+00:00)

Cosmos 1461 - Pass Details

Date: 09 April 2020
Orbit: 507 x 659 km, 65.0° (Epoch: 28 May)

Event Time Altitude Azimuth Distance (km) Brightness Sun altitude
Rises 18:56:04 0° 326° (NW) 2,880 7.4 -5.6°
Reaches altitude 10° 18:58:21 10° 331° (NNW) 1,995 6.4 -5.9°
Maximum altitude 19:02:48 56° 50° (NE) 760 3.4 -6.7°
Drops below altitude 10° 19:07:24 10° 129° (SE) 2,052 5.1 -7.4°
Enters shadow 19:07:56 - 130° (SE) 2,254 5.3 -7.5°
